Temp
-7 -7 -7 -7 -7 -6 -6 -6 -7 -7 -7 -7 -7 -7 -7 -7 -7 -7 -7 -7 -7 -7 -7 -7 -7 -7 -7 -8 -8 -8 -8 -8 -8 -8 -8 -8 -8 -8 -8 -8 -8 -8 -9 -9 -9 -9 -9 -9 -9 -9 -9 -9 -9 -9 -9 -9 -9 -9 -9 -9 -9 -9 -9 -9 -9 -9 -10 -10 -9 -9 -9 -9 -9 -9
-7 -7 -7 -7 -7 -7 -7 -6 -7 -7 -7 -7 -7 -7 -7 -7 -7 -7 -7 -7 -7 -7 -7 -7 -7 -8 -8 -8 -8 -8 -8 -8 -8 -8 -8 -8 -8 -8 -8 -8 -8 -8 -9 -9 -9 -9 -9 -9 -9 -9 -9 -9 -9 -9 -9 -9 -9 -9 -9 -9 -9 -9 -9 -9 -9 -9 -9 -9 -9 -9 -9 -9 -9 -9
-7 -7 -7 -7 -7 -7 -7 -7 -7 -7 -7 -7 -7 -7 -7 -7 -7 -7 -7 -7 -7 -7 -7 -7 -8 -8 -8 -8 -8 -8 -8 -8 -8 -8 -8 -8 -8 -8 -8 -8 -8 -8 -8 -9 -9 -9 -9 -9 -9 -9 -9 -9 -9 -9 -9 -9 -9 -9 -9 -9 -9 -9 -9 -9 -9 -9 -9 -9 -9 -9 -9 -9 -9 -9
-7 -7 -7 -7 -7 -7 -7 -7 -7 -7 -7 -7 -6 -7 -7 -7 -7 -7 -7 -7 -7 -7 -7 -8 -8 -8 -8 -8 -8 -8 -8 -8 -8 -8 -8 -8 -8 -8 -8 -8 -8 -8 -8 -8 -9 -9 -9 -9 -9 -9 -9 -9 -9 -9 -9 -9 -9 -9 -9 -9 -9 -9 -9 -9 -9 -9 -9 -9 -9 -9 -9 -9 -10 -10
-7 -7 -7 -7 -7 -7 -7 -7 -7 -7 -7 -7 -6 -6 -7 -7 -7 -7 -7 -7 -7 -7 -8 -8 -8 -8 -8 -8 -8 -8 -8 -8 -8 -8 -8 -8 -8 -8 -8 -8 -9 -8 -8 -8 -8 -8 -8 -8 -8 -9 -9 -9 -9 -9 -9 -9 -9 -9 -9 -9 -9 -9 -9 -9 -9 -9 -9 -9 -9 -9 -9 -9 -9 -10
-7 -7 -7 -7 -7 -7 -7 -7 -7 -7 -7 -7 -7 -7 -7 -7 -7 -7 -7 -7 -7 -7 -7 -8 -8 -8 -8 -8 -8 -8 -8 -8 -8 -8 -8 -8 -8 -8 -8 -8 -8 -8 -8 -8 -8 -8 -8 -8 -8 -8 -8 -8 -8 -9 -9 -9 -9 -9 -9 -9 -9 -9 -9 -9 -9 -9 -9 -9 -9 -9 -9 -9 -9 -9
-7 -7 -7 -7 -7 -7 -7 -7 -7 -7 -7 -7 -7 -7 -7 -7 -7 -7 -7 -7 -7 -7 -8 -8 -8 -8 -8 -8 -8 -8 -8 -8 -8 -8 -8 -8 -8 -8 -8 -8 -8 -8 -8 -8 -8 -8 -8 -8 -8 -8 -8 -8 -8 -8 -9 -9 -9 -9 -9 -9 -9 -9 -9 -9 -8 -9 -9 -9 -9 -9 -9 -9 -9 -9
-6 -7 -7 -7 -7 -6 -6 -6 -7 -7 -7 -7 -7 -7 -7 -7 -7 -7 -7 -7 -7 -7 -7 -8 -8 -8 -8 -8 -8 -8 -8 -8 -8 -8 -8 -8 -8 -8 -8 -8 -8 -8 -8 -8 -8 -8 -8 -8 -8 -8 -8 -8 -8 -8 -8 -8 -9 -9 -9 -9 -9 -8 -8 -8 -8 -8 -8 -9 -9 -9 -9 -9 -9 -9
-6 -6 -7 -7 -7 -6 -6 -6 -6 -6 -7 -7 -6 -6 -7 -7 -7 -7 -7 -7 -7 -7 -7 -8 -8 -8 -8 -8 -8 -8 -8 -8 -8 -8 -8 -8 -8 -8 -8 -8 -8 -8 -8 -8 -8 -8 -8 -8 -8 -8 -8 -8 -8 -8 -9 -9 -9 -9 -9 -9 -8 -8 -8 -8 -8 -8 -8 -8 -9 -9 -9 -9 -9 -9
-6 -6 -6 -7 -6 -6 -6 -6 -6 -6 -6 -6 -7 -7 -7 -7 -7 -7 -7 -7 -8 -8 -8 -8 -8 -8 -8 -8 -8 -8 -8 -8 -8 -8 -8 -8 -8 -8 -8 -8 -8 -8 -8 -8 -8 -8 -8 -8 -8 -8 -8 -8 -8 -9 -9 -9 -9 -9 -9 -9 -8 -8 -8 -8 -8 -8 -8 -8 -8 -9 -9 -9 -9 -9
-6 -6 -6 -6 -6 -6 -6 -6 -6 -6 -6 -7 -7 -7 -7 -7 -7 -7 -7 -7 -8 -8 -8 -8 -8 -8 -8 -8 -8 -8 -8 -8 -8 -8 -8 -8 -8 -8 -8 -8 -8 -8 -8 -8 -8 -8 -8 -8 -8 -8 -8 -8 -8 -8 -9 -9 -9 -9 -9 -8 -8 -8 -8 -8 -8 -8 -8 -8 -8 -8 -8 -9 -9 -9
-6 -6 -6 -6 -6 -6 -6 -6 -6 -6 -6 -7 -7 -7 -7 -7 -7 -7 -7 -8 -8 -8 -8 -8 -8 -9 -9 -8 -8 -8 -8 -8 -8 -8 -8 -8 -8 -8 -8 -8 -8 -8 -8 -8 -8 -8 -8 -8 -8 -8 -9 -9 -9 -9 -9 -8 -9 -9 -8 -8 -8 -8 -8 -8 -8 -7 -7 -7 -8 -8 -8 -9 -9 -9
-6 -6 -6 -6 -6 -6 -6 -6 -6 -6 -6 -7 -7 -7 -7 -7 -7 -7 -7 -8 -8 -8 -8 -8 -8 -8 -9 -8 -8 -8 -8 -8 -8 -8 -8 -8 -8 -7 -8 -8 -8 -8 -8 -8 -8 -8 -8 -8 -8 -8 -8 -8 -8 -9 -9 -8 -8 -8 -8 -7 -7 -7 -7 -8 -8 -7 -7 -7 -7 -8 -8 -8 -8 -8
-6 -6 -6 -6 -6 -6 -6 -6 -6 -6 -7 -7 -7 -7 -7 -7 -7 -7 -7 -8 -8 -8 -8 -8 -8 -8 -8 -8 -8 -8 -8 -8 -7 -7 -7 -7 -8 -7 -8 -8 -8 -8 -7 -7 -8 -8 -8 -8 -8 -8 -8 -8 -8 -8 -8 -8 -8 -8 -8 -7 -6 -7 -7 -7 -7 -7 -7 -7 -7 -7 -7 -8 -8 -8
-5 -5 -6 -6 -6 -6 -6 -6 -6 -7 -7 -7 -7 -7 -7 -7 -7 -7 -7 -8 -8 -8 -8 -8 -8 -8 -8 -8 -8 -8 -8 -8 -8 -8 -8 -7 -8 -8 -7 -7 -8 -8 -7 -7 -7 -8 -8 -7 -7 -7 -7 -7 -7 -7 -7 -7 -7 -7 -7 -7 -6 -6 -6 -7 -7 -7 -7 -7 -7 -7 -7 -7 -7 -7
-5 -5 -5 -6 -6 -6 -6 -6 -7 -7 -7 -7 -7 -7 -7 -7 -7 -7 -7 -8 -8 -8 -8 -8 -8 -8 -8 -8 -8 -8 -8 -8 -8 -8 -8 -7 -7 -7 -7 -7 -7 -7 -7 -6 -6 -7 -7 -7 -6 -7 -7 -7 -7 -7 -7 -7 -7 -6 -6 -6 -6 -6 -6 -6 -6 -6 -6 -7 -7 -7 -7 -7 -7 -7
-5 -5 -5 -6 -6 -6 -6 -7 -7 -7 -7 -7 -7 -7 -7 -7 -7 -7 -7 -8 -8 -7 -8 -8 -8 -8 -8 -8 -8 -8 -7 -7 -7 -7 -7 -7 -7 -7 -7 -7 -7 -7 -7 -6 -6 -6 -7 -6 -6 -6 -6 -6 -6 -7 -7 -7 -7 -6 -6 -6 -6 -6 -5 -6 -6 -6 -6 -6 -6 -6 -7 -7 -7 -7
-5 -5 -6 -6 -6 -6 -6 -7 -7 -7 -7 -7 -7 -7 -7 -7 -7 -7 -8 -8 -8 -7 -7 -8 -8 -8 -8 -8 -8 -8 -7 -7 -7 -7 -7 -7 -7 -7 -7 -7 -7 -7 -7 -6 -6 -5 -6 -6 -5 -5 -5 -5 -5 -6 -6 -6 -6 -6 -6 -6 -6 -6 -5 -6 -6 -6 -6 -6 -6 -6 -6 -7 -7 -7
-5 -5 -6 -6 -6 -6 -7 -7 -7 -7 -7 -7 -7 -7 -7 -7 -8 -8 -8 -8 -7 -7 -7 -7 -8 -8 -8 -7 -7 -7 -7 -7 -7 -7 -7 -7 -7 -7 -7 -7 -7 -7 -7 -7 -6 -5 -5 -5 -5 -5 -5 -5 -5 -5 -5 -5 -5 -6 -6 -6 -6 -6 -6 -6 -6 -6 -6 -6 -6 -6 -6 -6 -6 -7
-5 -6 -6 -6 -6 -7 -7 -7 -7 -7 -7 -7 -8 -8 -7 -8 -8 -8 -8 -8 -7 -7 -7 -7 -7 -7 -7 -7 -7 -7 -7 -7 -7 -7 -7 -7 -7 -7 -7 -7 -7 -7 -7 -7 -6 -5 -5 -5 -5 -5 -5 -5 -5 -5 -5 -5 -5 -5 -6 -6 -6 -6 -6 -6 -6 -6 -6 -6 -6 -6 -6 -6 -6 -6
-6 -6 -6 -6 -7 -7 -7 -7 -7 -8 -8 -8 -8 -8 -8 -8 -8 -8 -8 -8 -7 -7 -7 -7 -7 -8 -8 -8 -7 -7 -7 -7 -7 -7 -7 -7 -7 -7 -7 -7 -7 -7 -7 -7 -6 -5 -5 -5 -5 -5 -5 -5 -5 -5 -5 -5 -5 -5 -5 -6 -6 -6 -6 -6 -6 -6 -6 -6 -6 -6 -6 -6 -6 -6
-6 -6 -6 -7 -7 -7 -7 -7 -8 -8 -8 -8 -8 -8 -8 -8 -8 -8 -8 -7 -7 -7 -7 -8 -8 -8 -8 -8 -8 -8 -8 -8 -7 -7 -7 -7 -7 -7 -7 -7 -6 -7 -7 -6 -6 -5 -5 -5 -5 -5 -4 -4 -5 -5 -5 -5 -5 -5 -5 -5 -6 -6 -6 -6 -6 -6 -6 -6 -6 -6 -6 -6 -6 -6
-6 -6 -6 -7 -7 -7 -8 -8 -8 -8 -8 -8 -8 -8 -8 -8 -8 -8 -8 -7 -7 -7 -7 -8 -8 -8 -8 -8 -8 -8 -8 -8 -8 -8 -7 -7 -7 -7 -7 -7 -6 -6 -7 -6 -6 -5 -5 -5 -5 -5 -4 -4 -4 -5 -5 -5 -5 -5 -5 -5 -5 -6 -6 -6 -6 -6 -6 -6 -6 -6 -6 -6 -6 -6
-6 -6 -7 -7 -7 -8 -8 -8 -8 -8 -8 -8 -8 -8 -8 -8 -8 -8 -8 -8 -8 -8 -8 -8 -8 -8 -8 -8 -8 -8 -8 -8 -8 -7 -7 -7 -7 -7 -7 -7 -6 -6 -6 -6 -5 -5 -5 -5 -5 -5 -4 -4 -4 -4 -5 -5 -5 -5 -5 -5 -5 -5 -6 -6 -6 -6 -6 -6 -6 -6 -6 -6 -6 -5
-7 -7 -7 -7 -8 -8 -8 -8 -8 -8 -8 -8 -8 -8 -8 -8 -8 -8 -8 -8 -8 -8 -8 -8 -8 -8 -8 -8 -8 -8 -8 -8 -7 -7 -7 -7 -7 -7 -7 -6 -6 -6 -6 -6 -5 -5 -5 -5 -5 -4 -4 -4 -4 -4 -4 -5 -5 -5 -5 -5 -5 -5 -5 -5 -6 -6 -6 -6 -6 -6 -6 -6 -6 -5
-7 -7 -7 -8 -8 -8 -8 -8 -8 -8 -8 -8 -8 -8 -8 -8 -8 -8 -8 -8 -8 -8 -8 -8 -8 -8 -8 -8 -8 -8 -8 -7 -7 -7 -7 -7 -7 -7 -7 -6 -6 -6 -6 -6 -6 -5 -5 -5 -5 -5 -4 -4 -4 -4 -4 -4 -5 -5 -4 -4 -4 -5 -5 -5 -5 -5 -6 -6 -6 -6 -6 -6 -6 -5
-7 -7 -8 -8 -8 -8 -8 -8 -8 -8 -8 -8 -8 -8 -8 -8 -8 -8 -8 -8 -8 -8 -8 -8 -8 -8 -8 -8 -8 -8 -7 -7 -7 -7 -7 -7 -7 -7 -7 -7 -6 -6 -6 -6 -6 -6 -5 -5 -5 -5 -5 -5 -4 -4 -4 -4 -4 -4 -4 -4 -4 -4 -5 -5 -5 -5 -5 -6 -6 -6 -6 -6 -5 -5
-7 -7 -8 -8 -8 -8 -8 -8 -8 -8 -8 -8 -8 -8 -8 -8 -8 -8 -8 -8 -8 -8 -8 -8 -8 -8 -8 -8 -8 -8 -7 -7 -7 -7 -7 -7 -7 -7 -7 -7 -7 -6 -6 -6 -6 -6 -5 -5 -5 -5 -5 -5 -5 -5 -4 -4 -4 -4 -4 -4 -4 -4 -5 -5 -5 -5 -5 -5 -6 -6 -6 -5 -5 -5
-7 -8 -8 -8 -8 -8 -8 -8 -8 -8 -8 -8 -8 -8 -8 -8 -8 -8 -8 -8 -8 -8 -8 -8 -8 -8 -8 -8 -8 -8 -7 -7 -7 -7 -7 -7 -7 -7 -7 -7 -7 -7 -7 -6 -6 -6 -5 -5 -5 -5 -5 -5 -5 -5 -4 -4 -4 -4 -4 -4 -4 -4 -5 -5 -5 -6 -5 -5 -5 -5 -5 -5 -5 -5
-8 -8 -8 -8 -8 -8 -8 -8 -8 -8 -8 -8 -8 -8 -8 -8 -8 -8 -8 -8 -8 -8 -8 -8 -8 -8 -8 -8 -8 -7 -7 -7 -7 -7 -7 -7 -7 -7 -7 -7 -7 -7 -7 -6 -6 -6 -6 -5 -5 -5 -5 -5 -5 -5 -5 -4 -4 -4 -4 -4 -4 -5 -5 -5 -5 -6 -6 -5 -5 -5 -5 -5 -5 -5
-8 -8 -8 -8 -8 -8 -8 -8 -8 -8 -8 -8 -8 -8 -8 -8 -8 -8 -8 -8 -8 -8 -8 -8 -8 -8 -8 -8 -8 -7 -7 -7 -7 -7 -7 -7 -7 -7 -7 -7 -7 -7 -7 -7 -6 -6 -6 -6 -5 -5 -5 -5 -5 -5 -5 -5 -5 -5 -5 -5 -5 -5 -5 -5 -5 -6 -6 -5 -5 -5 -5 -5 -5 -5
-8 -8 -8 -8 -8 -8 -8 -8 -8 -8 -8 -8 -8 -8 -8 -8 -8 -8 -8 -8 -8 -8 -8 -8 -8 -8 -8 -8 -7 -7 -7 -7 -7 -7 -7 -7 -7 -7 -7 -7 -6 -6 -6 -6 -6 -6 -6 -6 -6 -6 -5 -5 -5 -5 -5 -5 -5 -5 -5 -5 -5 -5 -5 -5 -5 -5 -6 -5 -5 -5 -5 -5 -5 -5
-8 -8 -8 -8 -8 -8 -8 -8 -8 -8 -8 -8 -8 -8 -8 -8 -8 -8 -8 -8 -8 -8 -8 -8 -8 -8 -8 -7 -7 -7 -7 -7 -7 -7 -7 -7 -7 -7 -7 -6 -6 -6 -6 -6 -6 -6 -6 -6 -6 -6 -6 -5 -5 -5 -5 -5 -5 -5 -5 -5 -5 -5 -5 -6 -6 -6 -6 -6 -5 -5 -5 -5 -5 -5
-8 -8 -8 -8 -8 -8 -8 -8 -8 -8 -8 -8 -8 -8 -8 -8 -8 -8 -8 -8 -8 -8 -8 -8 -8 -7 -7 -7 -7 -7 -7 -7 -7 -7 -7 -7 -7 -7 -7 -7 -6 -6 -6 -6 -6 -6 -6 -6 -6 -5 -5 -5 -5 -5 -5 -5 -5 -5 -5 -5 -5 -5 -5 -6 -6 -6 -6 -6 -6 -5 -5 -5 -5 -5
-8 -8 -8 -8 -8 -8 -8 -8 -8 -8 -8 -8 -8 -8 -8 -8 -8 -8 -8 -8 -8 -8 -8 -7 -7 -7 -7 -7 -7 -7 -7 -7 -7 -7 -7 -7 -7 -7 -7 -7 -7 -6 -6 -6 -6 -6 -6 -5 -5 -5 -5 -5 -5 -5 -5 -5 -5 -5 -5 -5 -5 -5 -5 -6 -6 -6 -6 -6 -6 -5 -5 -5 -5 -5
-8 -8 -8 -8 -8 -8 -8 -8 -8 -8 -8 -8 -8 -8 -8 -8 -8 -8 -8 -8 -8 -7 -7 -7 -7 -7 -7 -7 -7 -7 -7 -7 -7 -7 -7 -7 -7 -7 -7 -7 -7 -6 -6 -6 -6 -6 -6 -5 -5 -5 -5 -5 -5 -5 -5 -4 -4 -4 -4 -5 -5 -5 -5 -6 -6 -6 -6 -6 -6 -6 -5 -5 -5 -5
-8 -8 -8 -8 -8 -8 -8 -8 -8 -8 -8 -8 -8 -8 -8 -8 -8 -8 -8 -7 -7 -7 -7 -7 -7 -7 -7 -7 -7 -7 -7 -7 -7 -7 -7 -7 -7 -7 -7 -7 -7 -7 -6 -6 -6 -6 -6 -6 -5 -5 -5 -5 -5 -5 -5 -4 -4 -4 -4 -4 -5 -5 -5 -6 -6 -6 -6 -6 -6 -6 -6 -5 -5 -5
-8 -8 -8 -8 -8 -8 -8 -8 -8 -8 -8 -8 -8 -8 -8 -8 -7 -7 -7 -7 -7 -7 -7 -7 -7 -7 -7 -7 -7 -7 -7 -7 -7 -7 -7 -7 -7 -7 -7 -7 -7 -7 -6 -6 -6 -6 -6 -6 -5 -5 -5 -5 -5 -5 -5 -5 -5 -4 -4 -4 -5 -5 -5 -5 -6 -6 -6 -6 -6 -6 -6 -6 -5 -5
-8 -8 -8 -8 -8 -8 -8 -8 -8 -8 -8 -8 -8 -8 -7 -7 -7 -7 -7 -7 -7 -7 -7 -7 -7 -7 -7 -7 -7 -7 -7 -7 -7 -7 -7 -7 -7 -7 -7 -7 -7 -7 -7 -7 -6 -6 -6 -6 -6 -6 -5 -5 -5 -5 -5 -5 -5 -5 -5 -5 -5 -5 -5 -5 -5 -6 -6 -6 -6 -6 -6 -6 -6 -6
-8 -8 -8 -8 -8 -8 -8 -8 -8 -8 -8 -8 -8 -7 -7 -7 -7 -7 -7 -7 -7 -7 -7 -7 -7 -7 -7 -7 -7 -7 -7 -7 -7 -7 -7 -7 -7 -7 -7 -7 -7 -7 -7 -7 -7 -7 -6 -6 -6 -6 -6 -6 -5 -5 -5 -5 -5 -5 -5 -5 -5 -5 -5 -5 -5 -6 -6 -6 -6 -6 -6 -6 -6 -6
-8 -8 -8 -8 -8 -8 -8 -8 -8 -7 -7 -7 -7 -7 -7 -7 -7 -7 -7 -7 -7 -7 -7 -7 -7 -7 -7 -7 -7 -7 -7 -7 -7 -7 -7 -7 -7 -7 -7 -7 -7 -7 -7 -7 -7 -7 -7 -6 -6 -6 -6 -6 -6 -6 -6 -6 -6 -6 -6 -6 -6 -6 -5 -5 -6 -6 -6 -7 -7 -7 -6 -6 -6 -6
-8 -8 -8 -8 -8 -8 -8 -7 -7 -7 -7 -7 -7 -7 -7 -7 -7 -7 -7 -7 -7 -7 -7 -7 -7 -7 -7 -7 -7 -7 -7 -7 -7 -7 -7 -7 -7 -7 -7 -7 -7 -7 -7 -7 -7 -7 -7 -7 -7 -6 -6 -6 -6 -6 -6 -6 -6 -6 -6 -6 -6 -6 -6 -6 -6 -6 -7 -7 -7 -7 -7 -7 -7 -7
-7 -7 -7 -7 -7 -7 -7 -7 -7 -7 -7 -7 -7 -7 -7 -7 -7 -7 -7 -7 -7 -7 -7 -7 -7 -7 -7 -7 -7 -7 -7 -7 -7 -7 -7 -7 -7 -7 -7 -7 -7 -7 -7 -7 -7 -7 -7 -7 -7 -7 -6 -6 -6 -6 -6 -7 -7 -7 -7 -7 -7 -7 -7 -7 -7 -7 -8 -8 -8 -8 -8 -8 -8 -8
-7 -7 -7 -7 -7 -7 -7 -7 -7 -7 -7 -7 -7 -7 -7 -7 -7 -7 -7 -7 -7 -7 -7 -7 -7 -7 -7 -7 -7 -7 -7 -7 -7 -7 -7 -7 -7 -7 -7 -7 -7 -7 -7 -7 -7 -7 -7 -7 -7 -7 -7 -7 -7 -7 -7 -7 -7 -7 -7 -7 -7 -7 -8 -8 -8 -8 -8 -8 -8 -8 -8 -8 -8 -8
-7 -7 -7 -7 -7 -7 -7 -7 -7 -7 -7 -7 -7 -7 -7 -7 -7 -7 -7 -7 -7 -7 -7 -7 -7 -7 -7 -7 -7 -7 -7 -7 -7 -7 -7 -7 -7 -7 -7 -7 -8 -8 -8 -8 -7 -7 -7 -7 -7 -7 -7 -7 -7 -7 -7 -7 -7 -8 -8 -8 -8 -8 -8 -8 -8 -8 -9 -9 -9 -9 -8 -8 -8 -8
Height
5966 5967 5967 5967 5968 5968 5968 5968 5969 5969 5969 5969 5969 5969 5969 5969 5969 5969 5969 5969 5969 5969 5968 5968 5967 5967 5966 5966 5965 5965 5964 5963 5962 5962 5961 5960 5959 5958 5957 5956 5954 5953 5951 5950 5948 5947 5945 5943 5942 5940 5938 5936 5934 5932 5930 5928 5926 5924 5922 5920 5918 5916 5914 5912 5910 5908 5905 5902 5899 5897 5894 5892 5889 5887
5967 5967 5967 5967 5967 5968 5968 5969 5969 5969 5969 5969 5969 5969 5969 5969 5969 5969 5969 5969 5969 5969 5969 5968 5968 5967 5967 5966 5965 5965 5964 5964 5963 5962 5961 5960 5959 5958 5957 5956 5954 5952 5951 5950 5948 5946 5945 5943 5941 5939 5937 5935 5933 5931 5929 5927 5925 5923 5921 5919 5917 5915 5913 5911 5909 5906 5904 5901 5899 5896 5894 5891 5889 5886
5967 5967 5967 5967 5967 5967 5968 5968 5968 5969 5969 5970 5970 5970 5970 5970 5970 5970 5970 5970 5970 5970 5969 5969 5968 5968 5967 5966 5966 5965 5965 5964 5963 5962 5961 5960 5959 5958 5957 5955 5953 5952 5950 5949 5948 5946 5945 5943 5941 5938 5936 5934 5932 5930 5928 5926 5924 5922 5920 5918 5916 5913 5911 5909 5907 5904 5902 5899 5897 5895 5892 5890 5887 5885
5967 5967 5967 5967 5966 5967 5967 5967 5968 5968 5969 5969 5970 5970 5970 5970 5970 5970 5970 5970 5970 5970 5969 5969 5969 5968 5967 5967 5966 5965 5965 5964 5963 5962 5961 5960 5959 5958 5957 5955 5953 5951 5950 5949 5947 5946 5944 5942 5940 5938 5935 5933 5931 5929 5927 5924 5922 5920 5918 5916 5914 5912 5909 5907 5905 5903 5900 5897 5895 5892 5890 5888 5885 5883
5966 5966 5966 5966 5966 5966 5966 5966 5967 5967 5968 5969 5969 5970 5970 5970 5970 5971 5971 5971 5970 5970 5970 5969 5969 5968 5967 5967 5966 5965 5965 5964 5963 5962 5961 5960 5959 5958 5956 5955 5953 5951 5949 5948 5947 5945 5943 5941 5939 5936 5934 5932 5929 5927 5925 5923 5920 5918 5916 5914 5912 5910 5908 5906 5903 5901 5899 5896 5893 5891 5888 5885 5883 5881
5966 5966 5966 5966 5965 5965 5966 5966 5966 5966 5967 5968 5969 5970 5970 5971 5971 5971 5971 5971 5971 5970 5970 5969 5968 5968 5967 5967 5966 5965 5965 5964 5963 5962 5961 5960 5959 5957 5955 5954 5952 5951 5949 5947 5945 5943 5941 5939 5937 5935 5933 5930 5928 5926 5923 5921 5919 5916 5915 5912 5910 5908 5906 5904 5902 5900 5897 5895 5892 5889 5886 5883 5881 5878
5965 5965 5965 5965 5965 5965 5965 5965 5965 5965 5966 5967 5969 5969 5970 5971 5971 5971 5971 5971 5971 5970 5970 5969 5969 5968 5967 5967 5966 5966 5965 5964 5963 5961 5960 5959 5958 5957 5955 5953 5951 5949 5948 5946 5944 5942 5939 5937 5935 5932 5930 5928 5926 5924 5922 5920 5917 5915 5913 5910 5908 5906 5904 5902 5900 5898 5896 5893 5890 5887 5884 5881 5878 5876
5964 5965 5965 5964 5964 5964 5964 5965 5965 5965 5965 5967 5968 5969 5970 5970 5971 5971 5971 5971 5971 5970 5970 5969 5969 5968 5967 5966 5966 5965 5964 5963 5962 5960 5959 5957 5956 5955 5954 5952 5950 5947 5945 5944 5943 5941 5938 5935 5932 5929 5927 5926 5924 5921 5919 5917 5915 5913 5911 5908 5905 5903 5901 5899 5897 5895 5893 5890 5888 5885 5882 5879 5876 5873
5963 5964 5964 5964 5964 5964 5964 5964 5964 5964 5965 5966 5967 5968 5969 5970 5970 5971 5971 5970 5970 5970 5969 5969 5968 5968 5967 5966 5965 5964 5963 5962 5961 5960 5958 5956 5955 5953 5952 5950 5948 5946 5944 5942 5941 5939 5936 5933 5929 5926 5924 5923 5920 5918 5916 5914 5912 5909 5907 5905 5903 5901 5899 5897 5894 5892 5889 5887 5884 5882 5879 5876 5874 5871
5962 5963 5963 5963 5963 5963 5964 5964 5964 5964 5964 5965 5966 5968 5969 5969 5970 5970 5970 5970 5970 5969 5969 5968 5968 5967 5966 5965 5964 5963 5962 5961 5960 5959 5958 5956 5954 5952 5950 5948 5946 5943 5941 5939 5938 5936 5934 5931 5927 5924 5922 5919 5917 5915 5912 5910 5908 5906 5904 5902 5900 5898 5896 5894 5892 5889 5886 5883 5881 5878 5875 5873 5870 5868
5961 5961 5962 5962 5962 5962 5963 5963 5963 5963 5964 5965 5966 5967 5968 5968 5969 5969 5969 5969 5969 5969 5969 5968 5967 5966 5965 5964 5963 5962 5961 5960 5959 5958 5957 5956 5953 5951 5949 5947 5945 5942 5939 5936 5934 5933 5931 5929 5926 5923 5920 5917 5914 5911 5909 5906 5904 5901 5900 5899 5897 5895 5893 5891 5888 5885 5882 5880 5877 5874 5872 5870 5867 5864
5960 5960 5960 5961 5961 5961 5962 5962 5963 5963 5963 5964 5965 5966 5967 5967 5968 5968 5969 5969 5968 5968 5968 5967 5966 5966 5965 5963 5962 5961 5960 5959 5957 5956 5955 5954 5952 5950 5947 5945 5942 5941 5940 5936 5932 5929 5927 5926 5923 5921 5918 5916 5912 5908 5904 5902 5899 5897 5896 5896 5894 5892 5890 5887 5884 5882 5879 5877 5874 5871 5868 5866 5863 5860
5958 5959 5959 5959 5960 5960 5961 5961 5962 5962 5963 5963 5964 5965 5966 5966 5967 5967 5967 5967 5967 5967 5967 5966 5965 5964 5963 5962 5961 5960 5959 5958 5956 5955 5954 5952 5951 5949 5947 5944 5940 5938 5937 5936 5932 5927 5923 5921 5920 5917 5914 5912 5910 5907 5903 5898 5894 5892 5891 5891 5890 5888 5885 5883 5881 5879 5876 5873 5870 5867 5865 5863 5860 5857
5956 5957 5958 5958 5959 5959 5960 5960 5961 5961 5962 5963 5964 5964 5964 5965 5965 5966 5966 5966 5966 5965 5965 5964 5964 5963 5962 5961 5960 5959 5958 5956 5954 5953 5951 5950 5949 5947 5945 5943 5938 5934 5932 5933 5931 5927 5921 5918 5917 5914 5910 5907 5906 5904 5901 5895 5890 5887 5886 5885 5884 5882 5880 5879 5877 5875 5872 5869 5866 5864 5861 5859 5857 5855
5954 5955 5956 5957 5958 5958 5959 5959 5960 5960 5961 5962 5963 5963 5963 5964 5964 5964 5964 5964 5964 5964 5963 5963 5962 5961 5960 5959 5958 5957 5956 5954 5952 5950 5948 5947 5946 5944 5942 5941 5938 5932 5928 5928 5929 5926 5920 5915 5915 5913 5908 5905 5903 5900 5897 5893 5887 5883 5881 5880 5878 5876 5875 5875 5873 5871 5868 5866 5863 5861 5859 5856 5854 5852
5952 5953 5954 5955 5956 5957 5958 5958 5959 5959 5960 5961 5961 5962 5962 5962 5962 5963 5963 5962 5962 5962 5962 5961 5960 5959 5958 5957 5956 5955 5953 5952 5950 5948 5946 5945 5943 5941 5939 5937 5935 5931 5926 5923 5924 5924 5920 5913 5911 5911 5906 5902 5900 5898 5894 5889 5885 5881 5878 5876 5873 5871 5870 5870 5869 5867 5865 5863 5860 5858 5855 5853 5851 5849
5950 5951 5952 5954 5955 5955 5956 5957 5957 5958 5958 5959 5960 5960 5960 5960 5961 5961 5961 5960 5960 5960 5960 5959 5958 5956 5955 5954 5953 5952 5951 5950 5948 5946 5944 5942 5940 5939 5936 5933 5931 5928 5923 5919 5918 5920 5919 5912 5907 5907 5904 5899 5897 5895 5891 5886 5882 5878 5875 5873 5870 5867 5865 5865 5864 5863 5861 5859 5857 5855 5852 5850 5848 5846
5948 5949 5950 5952 5953 5954 5955 5955 5956 5956 5957 5957 5958 5958 5958 5959 5959 5959 5959 5958 5958 5958 5957 5957 5955 5954 5953 5951 5950 5949 5948 5946 5945 5943 5942 5940 5938 5936 5934 5931 5928 5925 5921 5916 5913 5914 5916 5911 5905 5903 5901 5896 5894 5891 5887 5884 5880 5875 5871 5870 5867 5863 5861 5859 5858 5857 5857 5855 5854 5852 5849 5847 5844 5842
5947 5947 5949 5950 5951 5952 5953 5953 5954 5954 5955 5956 5956 5956 5956 5957 5957 5957 5957 5956 5955 5955 5955 5954 5953 5952 5950 5948 5947 5946 5944 5943 5942 5940 5938 5936 5935 5934 5933 5930 5927 5923 5918 5914 5910 5909 5910 5907 5903 5901 5897 5893 5890 5887 5882 5879 5877 5874 5870 5866 5863 5860 5856 5854 5853 5851 5850 5850 5849 5847 5845 5843 5840 5838
5945 5946 5947 5948 5949 5950 5951 5952 5952 5953 5953 5954 5954 5954 5954 5955 5955 5955 5954 5953 5953 5953 5952 5951 5950 5949 5947 5945 5943 5941 5940 5939 5938 5936 5934 5932 5931 5930 5929 5928 5925 5921 5916 5911 5906 5905 5905 5902 5899 5898 5895 5891 5888 5885 5881 5876 5873 5871 5868 5863 5860 5857 5854 5850 5848 5846 5845 5843 5842 5842 5841 5839 5836 5833
5943 5944 5945 5946 5947 5948 5949 5950 5950 5950 5951 5951 5952 5952 5952 5952 5952 5952 5952 5951 5951 5950 5950 5949 5947 5946 5944 5942 5940 5938 5937 5935 5934 5933 5931 5929 5927 5925 5924 5923 5922 5920 5915 5909 5904 5903 5902 5899 5895 5894 5892 5889 5885 5882 5879 5876 5871 5868 5865 5861 5857 5853 5850 5847 5844 5842 5840 5837 5836 5835 5835 5833 5831 5828
5941 5942 5943 5944 5945 5946 5947 5947 5947 5948 5948 5949 5949 5949 5949 5950 5950 5949 5949 5948 5948 5948 5947 5946 5945 5944 5942 5940 5938 5936 5934 5932 5930 5929 5928 5926 5923 5921 5919 5917 5917 5917 5913 5906 5902 5901 5899 5896 5892 5889 5888 5887 5884 5879 5875 5872 5868 5865 5862 5860 5856 5851 5847 5844 5840 5837 5835 5833 5830 5829 5828 5827 5825 5823
5938 5939 5940 5941 5942 5943 5944 5945 5945 5945 5946 5946 5946 5946 5947 5947 5947 5946 5946 5946 5945 5945 5944 5943 5942 5941 5940 5939 5937 5935 5933 5931 5928 5926 5924 5922 5920 5918 5916 5913 5911 5912 5910 5904 5899 5897 5896 5894 5890 5885 5882 5882 5881 5877 5872 5868 5864 5860 5856 5855 5853 5849 5844 5840 5836 5833 5830 5828 5825 5823 5822 5821 5819 5818
5936 5937 5937 5938 5939 5940 5941 5942 5942 5943 5943 5943 5943 5943 5943 5944 5943 5943 5943 5943 5942 5942 5941 5940 5939 5938 5937 5936 5934 5933 5931 5929 5927 5924 5922 5920 5918 5916 5914 5911 5908 5907 5905 5900 5895 5893 5891 5889 5885 5882 5878 5875 5875 5873 5869 5865 5861 5857 5852 5849 5847 5844 5841 5836 5832 5828 5825 5822 5820 5818 5815 5814 5813 5811
5934 5934 5935 5936 5936 5937 5938 5939 5940 5940 5940 5940 5940 5940 5940 5940 5940 5940 5940 5940 5939 5939 5938 5937 5936 5935 5934 5932 5931 5929 5927 5925 5923 5922 5919 5917 5915 5912 5909 5906 5904 5902 5899 5895 5891 5887 5886 5883 5880 5877 5874 5871 5868 5867 5865 5862 5858 5853 5849 5845 5842 5839 5836 5833 5829 5824 5820 5817 5815 5813 5810 5808 5807 5805
5931 5931 5932 5932 5933 5934 5935 5936 5937 5937 5936 5936 5937 5937 5937 5937 5937 5937 5937 5936 5936 5936 5935 5934 5933 5932 5931 5929 5928 5925 5924 5922 5920 5918 5916 5914 5912 5909 5906 5902 5899 5896 5895 5892 5888 5884 5881 5879 5876 5872 5869 5867 5864 5861 5860 5857 5854 5850 5846 5841 5837 5833 5830 5827 5825 5821 5817 5813 5811 5808 5805 5803 5801 5800
5928 5928 5929 5929 5930 5931 5932 5933 5933 5933 5933 5933 5934 5933 5933 5934 5934 5934 5933 5933 5933 5933 5932 5931 5930 5928 5927 5926 5924 5922 5920 5919 5917 5916 5913 5911 5908 5906 5903 5900 5896 5893 5890 5887 5884 5881 5878 5875 5873 5869 5866 5863 5860 5857 5855 5852 5849 5845 5841 5838 5834 5829 5825 5822 5819 5817 5814 5810 5806 5804 5801 5799 5796 5795
5925 5925 5925 5926 5927 5927 5928 5929 5929 5930 5930 5930 5930 5930 5930 5930 5931 5931 5930 5930 5930 5929 5928 5927 5926 5925 5924 5922 5921 5919 5917 5915 5914 5912 5910 5908 5905 5902 5900 5897 5894 5890 5887 5884 5880 5877 5874 5871 5869 5866 5863 5859 5856 5853 5850 5848 5844 5840 5836 5833 5830 5826 5822 5818 5814 5812 5810 5807 5803 5800 5797 5794 5792 5790
5922 5922 5922 5923 5923 5924 5924 5925 5925 5926 5926 5927 5926 5926 5926 5926 5927 5927 5927 5926 5926 5925 5924 5923 5922 5921 5920 5918 5917 5915 5913 5911 5910 5908 5906 5904 5901 5898 5896 5893 5890 5887 5884 5880 5877 5873 5870 5866 5864 5861 5858 5854 5851 5848 5845 5843 5840 5836 5832 5829 5826 5822 5818 5814 5810 5807 5805 5803 5799 5796 5793 5790 5788 5785
5918 5918 5919 5919 5919 5920 5921 5921 5922 5922 5923 5923 5923 5923 5923 5923 5923 5923 5923 5923 5922 5921 5920 5919 5918 5916 5915 5914 5912 5911 5909 5907 5905 5904 5901 5899 5896 5893 5890 5888 5886 5883 5880 5876 5873 5869 5866 5862 5859 5856 5853 5850 5846 5843 5840 5838 5836 5832 5827 5824 5821 5818 5814 5810 5806 5803 5800 5798 5795 5792 5788 5786 5783 5780
5914 5914 5915 5915 5916 5917 5917 5918 5918 5919 5919 5919 5919 5919 5919 5919 5919 5919 5919 5919 5918 5917 5916 5915 5913 5912 5911 5909 5908 5906 5904 5903 5901 5898 5896 5894 5891 5889 5886 5883 5881 5878 5875 5872 5869 5866 5862 5858 5854 5851 5849 5846 5842 5839 5836 5833 5830 5827 5823 5819 5815 5811 5808 5805 5802 5798 5795 5792 5790 5787 5784 5781 5778 5775
5909 5910 5911 5912 5913 5914 5914 5914 5915 5915 5915 5915 5915 5915 5915 5915 5915 5915 5915 5914 5913 5913 5911 5910 5909 5908 5906 5905 5903 5901 5900 5898 5896 5893 5891 5889 5886 5884 5881 5878 5875 5873 5870 5867 5864 5861 5858 5854 5851 5847 5843 5840 5838 5835 5831 5828 5825 5821 5818 5814 5810 5806 5803 5800 5796 5793 5790 5787 5785 5782 5779 5776 5774 5770
5907 5908 5909 5909 5910 5910 5911 5911 5911 5911 5911 5911 5911 5911 5911 5911 5911 5910 5910 5910 5909 5908 5907 5905 5904 5902 5901 5899 5898 5896 5894 5892 5890 5888 5886 5883 5881 5878 5876 5872 5869 5867 5864 5861 5858 5855 5852 5849 5846 5842 5838 5835 5832 5829 5826 5823 5819 5815 5811 5808 5804 5801 5797 5794 5791 5787 5785 5782 5779 5777 5774 5772 5768 5765
5905 5905 5906 5906 5906 5907 5907 5907 5907 5907 5907 5907 5907 5907 5907 5907 5906 5906 5905 5905 5904 5903 5902 5900 5899 5897 5896 5894 5893 5891 5889 5887 5885 5883 5880 5878 5875 5873 5870 5867 5864 5861 5858 5855 5852 5849 5846 5844 5841 5837 5833 5829 5826 5823 5820 5817 5814 5810 5806 5801 5798 5795 5792 5788 5786 5783 5780 5777 5774 5771 5769 5766 5763 5759
5902 5902 5903 5903 5903 5903 5903 5903 5904 5904 5904 5904 5904 5903 5903 5903 5902 5901 5901 5900 5899 5898 5896 5895 5893 5892 5891 5889 5887 5886 5884 5882 5880 5877 5875 5873 5870 5867 5865 5862 5859 5856 5853 5850 5847 5844 5841 5838 5835 5832 5829 5824 5820 5817 5815 5812 5808 5804 5801 5796 5792 5789 5786 5783 5780 5778 5775 5772 5769 5766 5763 5761 5757 5754
5898 5898 5898 5899 5899 5899 5899 5899 5899 5900 5900 5900 5899 5899 5898 5898 5898 5897 5896 5895 5894 5892 5891 5890 5888 5887 5885 5884 5882 5881 5879 5877 5874 5872 5870 5867 5865 5862 5859 5856 5853 5850 5847 5844 5841 5838 5835 5832 5829 5826 5823 5819 5814 5810 5807 5805 5802 5799 5796 5791 5787 5783 5780 5777 5775 5772 5769 5766 5764 5761 5758 5755 5752 5749
5893 5894 5894 5894 5894 5895 5894 5894 5894 5894 5894 5894 5894 5894 5894 5894 5893 5892 5891 5889 5888 5887 5886 5885 5883 5882 5880 5879 5877 5875 5873 5871 5869 5867 5864 5862 5859 5856 5854 5850 5847 5844 5841 5838 5835 5832 5829 5826 5823 5820 5817 5813 5809 5804 5800 5797 5794 5792 5789 5785 5781 5778 5775 5772 5769 5766 5764 5761 5759 5756 5753 5750 5747 5744
5888 5888 5889 5890 5890 5889 5889 5889 5889 5889 5889 5889 5890 5889 5889 5888 5887 5886 5885 5884 5883 5882 5881 5879 5878 5876 5875 5873 5871 5869 5867 5865 5863 5861 5858 5856 5853 5851 5847 5844 5841 5838 5835 5832 5829 5826 5823 5819 5816 5813 5810 5806 5803 5800 5795 5791 5787 5784 5782 5778 5775 5772 5769 5766 5763 5760 5758 5755 5753 5751 5748 5745 5742 5739
5883 5883 5883 5883 5884 5883 5882 5883 5883 5884 5884 5884 5884 5884 5883 5883 5882 5881 5880 5879 5878 5876 5875 5874 5872 5870 5869 5867 5865 5863 5861 5859 5857 5854 5852 5849 5847 5844 5841 5838 5835 5832 5828 5825 5822 5819 5816 5813 5809 5806 5803 5799 5796 5793 5790 5787 5783 5779 5776 5773 5769 5766 5763 5760 5757 5754 5752 5749 5747 5745 5742 5739 5736 5734
5877 5878 5877 5877 5877 5878 5878 5878 5879 5879 5879 5879 5879 5878 5878 5877 5876 5875 5874 5873 5872 5870 5869 5868 5866 5864 5862 5861 5859 5857 5855 5853 5850 5848 5846 5843 5841 5838 5835 5832 5828 5825 5822 5818 5815 5812 5809 5806 5803 5799 5795 5792 5789 5786 5783 5780 5777 5773 5770 5766 5763 5759 5756 5753 5750 5747 5745 5743 5741 5739 5736 5734 5731 5728
5870 5872 5872 5872 5872 5872 5872 5873 5873 5873 5873 5873 5873 5872 5871 5871 5870 5869 5868 5867 5866 5864 5863 5861 5859 5858 5856 5854 5852 5850 5848 5846 5844 5842 5839 5837 5834 5831 5828 5825 5822 5819 5815 5812 5809 5805 5802 5799 5796 5793 5789 5786 5782 5779 5776 5773 5769 5766 5763 5760 5756 5753 5749 5746 5743 5740 5738 5736 5735 5733 5731 5728 5726 5724
5864 5864 5866 5867 5867 5867 5867 5867 5867 5867 5867 5867 5867 5866 5865 5864 5864 5863 5862 5860 5859 5857 5856 5855 5853 5851 5849 5848 5846 5844 5842 5840 5837 5835 5832 5830 5827 5824 5821 5818 5815 5812 5809 5805 5802 5799 5796 5793 5790 5786 5783 5780 5776 5773 5770 5767 5763 5760 5757 5754 5750 5747 5744 5740 5737 5734 5731 5729 5728 5726 5725 5723 5721 5719
5858 5858 5859 5860 5861 5861 5861 5861 5861 5861 5861 5861 5861 5860 5859 5858 5857 5856 5855 5854 5852 5851 5850 5848 5847 5845 5843 5841 5839 5837 5835 5833 5830 5828 5825 5823 5820 5817 5814 5811 5808 5805 5802 5799 5796 5793 5790 5787 5784 5781 5777 5774 5770 5767 5764 5761 5758 5755 5752 5749 5746 5743 5740 5737 5733 5730 5727 5725 5722 5720 5719 5717 5716 5714
5852 5853 5853 5854 5854 5855 5855 5855 5855 5855 5855 5855 5854 5854 5853 5852 5851 5850 5848 5847 5846 5844 5843 5842 5840 5838 5837 5834 5832 5830 5828 5826 5823 5821 5818 5815 5813 5810 5807 5805 5802 5799 5795 5792 5789 5787 5784 5781 5778 5775 5771 5768 5765 5761 5758 5755 5752 5749 5746 5744 5741 5738 5735 5733 5730 5727 5725 5722 5720 5717 5715 5713 5712 5710
5847 5847 5848 5848 5849 5849 5849 5849 5849 5849 5849 5848 5848 5847 5846 5845 5844 5843 5842 5840 5839 5838 5837 5835 5833 5831 5830 5827 5825 5823 5821 5818 5816 5813 5811 5808 5805 5803 5800 5798 5795 5792 5789 5786 5783 5780 5778 5775 5772 5768 5765 5762 5759 5756 5753 5750 5747 5743 5740 5738 5735 5732 5730 5727 5725 5722 5720 5718 5717 5715 5712 5710 5709 5707
Wind_Speed
3 3 2 3 4 6 7 8 9 10 10 10 10 9 9 8 7 6 5 4 3 4 5 5 7 8 9 10 11 11 12 12 13 13 13 13 13 14 15 16 17 19 20 21 22 23 24 25 25 25 25 25 25 26 26 27 28 28 29 29 29 28 28 28 29 30 30 32 33 34 35 35 36 37
2 2 1 2 2 4 6 7 8 9 10 10 9 9 8 8 7 6 5 4 4 5 6 6 8 8 9 10 10 11 11 12 12 13 12 13 14 15 17 18 19 20 21 22 23 24 25 25 26 26 26 25 25 26 27 27 28 29 30 30 31 32 33 33 33 33 34 34 35 36 36 37 37 38
3 3 3 2 2 3 4 6 8 9 10 10 9 8 8 7 6 5 4 4 4 5 6 7 8 8 9 9 10 10 11 12 13 14 14 15 17 18 19 20 20 21 21 22 23 24 25 25 25 25 25 26 26 27 28 29 30 30 31 31 32 33 35 36 37 37 37 37 36 36 37 37 38 39
5 5 5 4 4 4 3 4 6 9 10 10 9 9 8 7 6 5 4 4 4 5 6 6 7 8 8 9 10 11 13 14 15 16 17 17 18 19 20 20 21 22 22 22 23 24 24 24 24 24 25 25 26 27 28 29 30 31 33 33 33 33 34 36 37 38 38 38 38 37 37 37 39 40
7 8 7 6 6 6 5 4 5 8 10 11 10 9 8 6 5 4 3 3 4 4 5 6 7 8 9 10 11 12 14 14 15 16 17 18 18 19 19 20 21 22 23 23 23 24 24 24 24 25 25 26 26 27 27 28 29 31 33 34 34 34 34 35 35 35 36 37 38 38 37 37 39 41
8 9 9 8 8 8 6 4 4 6 9 11 11 9 8 6 5 5 3 3 3 4 4 5 7 8 10 11 11 12 13 14 15 16 17 18 20 21 21 21 22 23 24 26 27 27 27 27 27 27 27 27 27 27 29 29 30 31 32 33 34 34 34 34 33 33 35 37 38 39 39 39 41 41
9 10 10 10 10 9 7 5 3 4 7 11 12 10 8 7 6 5 3 2 2 3 4 5 7 8 9 10 10 11 13 14 16 18 19 19 20 21 22 23 24 24 25 27 28 29 30 31 31 30 30 30 28 28 29 30 31 32 32 33 33 33 35 36 35 36 37 36 37 38 40 41 41 40
10 10 10 10 11 9 7 4 3 4 6 10 12 11 9 7 6 5 3 1 2 4 5 5 5 6 8 9 10 11 13 16 18 20 21 22 22 22 23 24 25 26 27 30 31 30 30 31 32 33 33 33 31 30 31 32 33 34 34 35 36 35 36 38 38 39 39 39 40 41 43 42 41 41
11 10 9 10 11 9 5 4 4 5 7 10 12 11 9 8 6 4 2 1 2 4 5 5 6 7 9 11 12 14 16 18 19 20 21 22 23 24 25 26 28 28 29 32 34 32 31 32 35 37 36 34 34 35 35 36 37 37 37 38 38 37 37 38 40 42 43 42 42 43 44 43 42 42
11 10 9 10 11 8 5 4 5 6 7 9 11 11 10 8 6 4 2 1 2 3 4 5 7 9 10 12 14 17 19 20 20 20 20 22 24 26 27 28 30 32 32 33 33 32 32 32 35 37 37 37 38 38 38 39 40 40 41 41 40 39 39 40 41 42 43 42 41 40 41 40 41 42
10 9 9 10 11 7 5 5 6 7 8 9 11 12 11 9 6 4 3 2 2 2 3 4 6 9 11 13 15 17 19 20 21 22 22 23 26 28 29 30 31 32 34 36 35 34 34 33 34 36 37 38 40 41 42 42 43 44 43 42 41 41 43 42 41 42 44 42 40 38 38 39 40 40
10 9 9 10 10 8 6 7 7 8 10 10 12 12 10 8 6 5 4 4 3 2 2 4 6 9 11 13 15 17 19 21 22 24 25 26 28 29 30 32 33 32 32 35 37 38 37 36 36 36 37 37 40 42 44 45 46 47 45 43 43 43 42 41 41 43 42 40 39 38 37 38 39 38
10 9 9 10 10 8 8 8 8 9 11 11 11 11 9 7 6 5 5 4 3 1 2 5 7 9 11 13 15 16 19 21 23 24 26 27 28 29 29 32 35 35 33 33 36 39 40 40 39 39 40 40 40 42 45 48 49 49 47 44 43 42 40 40 41 41 39 38 38 38 37 37 38 37
10 9 9 10 10 9 9 10 10 10 10 10 10 10 9 8 7 5 4 3 1 1 4 6 8 9 11 14 16 18 20 22 24 26 27 28 29 30 30 30 33 36 36 34 34 37 41 42 41 41 43 43 43 43 44 47 50 51 50 46 42 40 39 40 40 38 37 37 38 38 39 39 38 38
10 10 10 11 11 10 10 10 11 11 11 10 9 9 9 8 6 5 3 3 3 3 4 7 9 11 13 15 17 19 21 23 26 29 30 31 31 32 31 30 31 35 38 37 35 36 40 43 41 41 43 43 43 44 44 46 48 50 50 48 44 42 40 38 37 36 37 38 39 39 40 40 40 40
10 10 10 11 12 11 10 11 12 12 11 10 9 9 9 8 6 5 4 4 5 5 5 7 11 13 14 16 19 21 22 24 27 30 31 32 32 33 33 33 33 36 39 39 37 35 38 42 41 40 42 43 42 43 44 45 46 47 47 47 46 45 41 37 35 35 36 37 39 40 41 41 41 42
10 10 10 11 12 11 10 11 12 13 12 10 9 9 9 8 7 6 5 6 7 7 7 8 11 15 17 19 21 23 24 25 27 29 31 33 34 34 34 35 35 37 40 41 39 35 36 41 41 38 40 41 41 42 43 44 46 47 47 45 45 45 43 40 38 36 36 37 38 40 42 43 42 43
11 10 11 12 12 11 10 11 12 13 12 11 10 10 10 9 7 6 6 8 9 8 8 10 13 16 19 21 22 24 26 27 28 30 32 34 35 35 35 36 37 38 39 41 40 37 35 37 37 36 36 37 37 39 42 42 43 46 47 45 44 45 45 44 42 40 39 39 39 41 43 44 44 44
11 11 12 12 12 11 11 12 13 13 13 12 11 11 10 9 9 8 9 11 12 10 10 12 14 17 21 23 24 26 28 29 30 32 34 36 36 35 34 36 37 38 40 42 41 39 37 36 35 34 34 35 35 38 42 43 42 43 46 46 45 45 46 46 46 45 44 43 43 43 44 45 46 45
12 11 11 12 12 11 12 13 14 14 14 13 12 11 11 10 10 10 12 14 14 13 13 14 16 19 23 25 27 29 30 31 33 34 36 38 38 37 36 36 36 38 41 42 43 42 40 40 39 36 35 36 35 35 39 42 43 44 45 46 45 45 46 47 47 48 48 48 47 47 46 46 46 46
12 11 12 13 13 12 13 14 14 14 14 13 13 12 12 12 12 12 14 16 15 15 16 17 19 22 25 27 30 31 32 34 35 36 38 40 40 40 39 38 37 37 40 42 43 42 42 42 41 39 36 35 35 35 34 36 39 41 43 45 46 46 46 48 49 50 50 51 51 50 48 47 47 47
12 12 13 13 13 13 14 15 15 15 15 15 14 14 15 15 14 15 16 16 16 16 16 18 21 24 26 28 31 32 34 36 38 39 40 41 41 42 42 42 40 38 39 42 43 42 42 41 41 41 39 36 35 37 36 35 35 37 38 39 41 45 47 48 49 50 51 52 52 51 50 48 47 46
13 14 14 14 14 14 15 16 17 17 17 17 17 17 17 16 17 18 18 18 18 19 19 20 23 25 26 28 30 32 35 37 40 41 42 42 43 43 43 44 43 40 40 42 43 42 42 41 41 43 43 40 36 36 38 38 38 38 40 38 38 41 45 48 50 51 51 51 51 51 51 49 46 46
15 15 15 16 16 16 17 18 19 19 19 19 20 19 19 18 20 21 21 20 21 22 23 24 26 27 28 30 31 33 35 37 38 39 41 41 42 43 43 44 44 43 42 43 44 44 44 44 44 44 45 44 41 38 39 40 40 41 42 42 39 40 43 46 49 51 51 51 51 51 50 49 47 46
16 16 16 17 18 18 19 19 20 21 22 22 22 21 21 22 23 23 23 23 23 24 24 26 27 29 30 32 34 36 37 38 38 39 40 41 42 43 45 45 45 44 44 45 46 47 47 46 47 47 46 46 45 43 41 41 41 42 44 44 43 42 41 43 46 50 51 51 50 49 49 47 46 45
17 17 18 19 20 21 21 21 22 23 24 24 24 24 24 25 25 25 24 24 24 25 25 27 29 30 31 33 35 37 38 39 40 41 41 42 42 44 46 47 47 46 46 46 46 48 48 48 48 49 49 48 47 46 45 44 43 44 45 45 45 45 44 44 44 47 49 50 48 47 47 46 45 44
19 19 20 21 22 23 23 24 25 26 26 26 26 27 27 26 26 26 25 25 25 25 27 29 30 32 33 35 36 38 39 40 41 42 42 42 43 44 46 47 48 48 48 48 48 48 49 49 48 48 48 48 48 48 48 47 47 47 47 47 46 45 45 46 45 46 48 49 48 46 46 46 45 44
21 21 21 21 22 24 25 27 27 28 28 28 28 29 28 27 26 26 25 25 25 26 29 31 33 34 35 37 38 39 40 41 41 42 42 42 43 45 46 47 48 48 48 49 48 49 50 50 49 48 47 47 48 49 49 50 50 50 50 50 48 46 44 45 46 46 46 47 48 47 46 47 46 44
23 22 21 22 24 25 26 27 28 28 28 29 29 29 28 28 27 25 25 26 27 29 32 33 35 36 37 39 40 41 42 41 41 42 42 43 44 46 47 48 49 49 48 48 49 50 51 51 51 50 48 48 48 50 51 51 51 51 52 51 50 47 44 44 46 47 46 46 46 46 46 46 46 44
24 24 23 24 25 26 26 27 27 27 28 28 29 28 28 27 26 26 27 28 30 32 34 35 37 38 39 41 43 43 43 42 42 42 43 44 45 47 49 50 50 49 49 49 50 50 50 50 51 50 50 50 50 51 52 53 52 52 52 52 50 46 43 42 44 46 46 46 45 44 44 44 44 43
26 26 26 27 27 27 27 27 27 27 27 28 27 27 26 27 28 28 30 31 33 35 36 37 39 40 42 43 44 44 43 42 42 43 44 45 46 48 50 51 50 50 49 50 50 50 50 50 50 51 51 50 50 51 53 54 53 52 52 51 49 46 42 41 43 44 45 45 44 43 42 42 42 42
27 27 27 27 27 26 25 26 26 26 26 26 26 26 27 29 30 32 33 34 36 37 38 40 41 43 44 45 44 43 43 43 43 44 45 46 48 50 51 52 52 51 51 51 51 51 49 49 49 50 51 52 52 53 54 54 54 54 53 51 49 46 43 41 42 43 44 44 43 41 40 40 39 40
27 27 26 26 25 25 25 25 25 25 26 26 27 28 30 32 33 34 35 36 38 39 41 42 44 44 45 44 44 43 43 44 45 46 46 48 50 51 52 53 53 53 53 53 53 52 51 50 50 51 52 53 54 55 56 56 56 55 54 53 50 48 44 41 41 43 44 43 42 41 39 38 37 38
26 25 25 25 25 25 26 26 27 28 28 29 30 32 33 34 36 37 38 39 41 42 43 44 44 44 44 44 43 44 44 45 46 47 48 50 52 53 53 54 54 54 54 54 54 54 53 53 53 53 54 54 55 56 56 57 57 56 54 53 51 48 45 42 41 42 43 43 41 40 38 36 35 36
26 27 27 27 28 28 29 30 31 31 31 31 33 34 35 36 38 40 41 43 44 45 44 45 44 44 44 44 44 45 45 46 47 48 50 52 53 54 55 55 55 55 55 55 55 55 55 55 55 56 56 56 56 57 57 57 56 55 54 52 50 47 45 43 41 41 42 42 41 39 38 36 34 35
30 32 32 32 32 32 33 34 34 34 34 34 35 36 38 40 41 43 44 45 46 46 45 45 44 44 44 44 45 46 47 47 48 50 51 53 54 55 56 56 56 57 57 57 57 56 56 57 57 57 58 58 58 59 59 58 57 56 54 52 49 46 45 43 42 41 41 42 40 38 37 36 34 34
35 36 36 36 36 36 37 37 36 35 35 36 36 38 41 43 44 44 45 45 45 45 44 44 44 44 45 46 46 47 48 49 50 52 53 54 55 56 57 57 58 58 58 58 58 58 58 58 58 58 59 59 58 59 60 60 59 58 57 54 50 46 44 44 43 42 41 41 40 37 36 35 33 33
39 40 41 41 40 41 42 41 38 35 34 35 38 40 43 44 44 44 44 44 44 44 43 44 44 45 46 47 48 48 49 51 52 53 55 55 56 57 58 59 59 59 59 59 59 59 59 59 59 59 59 59 58 58 59 59 59 58 57 55 52 48 46 44 43 42 42 41 40 37 35 34 33 33
42 43 44 43 42 41 41 41 39 37 36 38 41 43 44 44 43 42 42 42 43 44 44 45 46 47 48 48 49 50 51 53 54 55 56 57 57 58 59 60 60 60 60 60 60 60 60 60 59 59 58 58 58 58 58 58 57 56 55 54 52 50 48 46 45 43 42 42 41 38 36 34 33 32
44 45 46 45 44 42 40 39 39 39 39 41 43 43 43 42 41 41 42 43 44 45 46 46 47 48 49 50 51 52 53 55 56 56 57 58 59 60 61 61 61 61 61 61 61 61 60 59 58 58 58 58 58 58 57 57 56 55 54 53 52 52 51 49 47 46 43 42 42 39 36 34 33 32
44 44 45 45 45 45 45 43 42 41 41 41 41 41 40 40 41 42 43 44 46 46 47 48 48 50 51 52 53 54 55 56 57 58 59 60 61 61 62 62 62 62 62 62 62 61 60 58 57 57 58 58 58 58 57 56 55 53 53 52 51 51 51 51 50 49 47 44 42 39 36 34 33 33
38 39 39 40 40 41 42 42 42 41 40 39 39 40 40 41 43 44 45 46 47 48 48 49 50 51 52 54 55 55 56 57 58 59 60 61 62 63 63 63 63 63 63 62 61 60 59 58 57 57 58 57 57 56 55 54 53 52 51 51 50 50 50 51 51 51 50 47 43 40 36 35 34 35
35 35 36 36 36 36 37 38 39 39 39 39 41 43 44 45 46 47 47 48 49 50 50 51 52 53 54 55 56 57 57 59 60 61 62 63 64 64 64 64 64 64 62 61 60 58 58 57 57 57 57 57 56 55 54 52 52 51 50 49 49 48 48 49 49 49 48 46 43 41 39 38 38 38
35 35 36 36 36 36 37 37 37 37 39 40 43 45 47 48 48 49 50 51 52 52 53 53 54 55 55 56 57 58 59 60 62 63 64 64 65 65 65 64 64 62 61 59 58 58 57 57 56 56 56 55 54 53 52 51 51 50 49 48 48 47 47 47 46 45 43 42 40 39 38 39 39 38
36 37 37 37 38 38 38 39 39 39 41 42 44 46 48 49 49 50 51 53 53 54 54 55 55 56 57 58 59 60 61 62 63 64 65 66 66 66 65 64 62 61 59 58 58 57 56 55 55 55 55 54 53 52 51 50 50 49 48 47 47 46 46 45 44 43 40 38 36 35 35 36 37 37
Wind_Direction
159 157 157 163 170 173 173 172 168 164 159 156 156 152 147 149 147 144 138 124 101 74 60 51 45 42 39 36 33 30 27 25 22 21 19 15 8 3 2 1 360 358 356 355 356 356 356 356 356 355 354 353 351 349 347 345 344 342 341 341 340 340 340 341 341 341 341 341 343 344 345 345 346 346
185 186 194 190 188 188 188 187 185 180 174 170 171 165 159 159 157 152 142 119 92 70 60 53 46 42 38 35 32 30 27 24 23 23 22 18 13 9 7 6 4 2 360 359 359 358 357 356 354 352 350 348 346 344 342 341 340 339 339 339 339 339 340 340 340 340 339 339 339 340 341 342 343 344
253 258 260 257 245 227 207 200 200 196 187 181 182 178 170 167 161 153 140 110 82 66 60 52 46 41 35 31 30 29 27 24 24 24 21 17 14 12 10 6 3 2 2 1 0 359 358 355 351 348 344 342 340 339 338 337 336 336 336 336 337 337 338 338 339 339 337 336 336 336 337 338 340 342
262 267 270 269 266 263 249 223 214 210 200 192 191 188 179 173 164 150 131 98 72 59 54 47 44 42 37 33 31 32 31 26 22 20 18 14 11 10 8 4 360 358 359 0 359 357 355 352 348 344 341 338 336 334 334 334 333 332 333 333 333 333 332 333 335 335 336 335 334 333 334 335 336 337
257 266 272 271 270 274 272 252 225 216 208 200 198 195 185 176 165 150 130 101 76 60 50 43 40 41 42 40 35 32 30 25 18 14 13 11 7 6 4 2 357 352 353 354 354 353 350 347 343 340 337 335 333 332 331 330 330 329 329 330 331 331 329 329 331 333 334 333 332 331 331 332 333 333
257 268 276 278 278 282 284 275 241 220 210 201 199 199 191 180 169 161 148 118 80 57 46 40 37 39 41 40 37 30 24 19 13 10 9 7 3 1 358 356 353 349 348 347 347 347 345 341 338 335 332 329 328 328 328 326 325 325 326 327 329 330 329 328 329 330 330 329 329 329 327 327 329 330
260 268 275 279 282 287 291 286 259 221 204 197 196 197 193 183 173 166 156 122 76 63 59 52 43 37 32 30 31 25 16 12 9 6 4 2 360 356 353 351 347 344 343 339 339 341 340 338 335 331 330 329 327 326 325 323 322 323 323 322 323 325 326 326 326 326 325 325 326 328 328 327 329 330
262 267 272 275 278 285 291 285 252 209 193 189 188 190 190 182 173 168 159 115 70 73 80 75 57 38 23 17 20 20 13 9 7 4 1 357 354 352 350 348 344 341 338 335 336 340 340 337 333 330 332 335 333 329 326 324 324 323 321 320 321 324 324 324 325 325 324 323 322 322 323 325 328 330
266 269 268 269 273 280 282 264 233 200 188 182 180 182 182 177 175 175 165 81 55 58 61 55 36 21 13 8 8 9 9 7 4 3 359 353 349 348 347 345 342 339 337 335 339 344 342 336 333 332 335 336 332 329 327 324 323 321 320 320 322 325 324 323 324 323 324 325 323 320 319 318 321 324
272 272 266 264 270 275 264 239 217 197 187 177 172 174 175 176 180 180 160 98 74 67 53 35 17 5 358 358 359 358 360 360 358 357 357 351 347 346 345 343 340 338 336 337 340 343 340 336 334 333 335 333 329 327 325 322 321 319 318 319 322 325 324 323 322 321 323 326 324 322 322 319 318 319
277 274 265 262 265 265 248 228 208 191 185 175 169 171 173 179 187 184 172 163 141 98 55 25 7 352 345 349 354 353 352 354 354 352 352 350 346 344 344 341 338 336 336 336 338 339 337 335 332 331 331 329 326 324 322 320 318 316 316 319 322 323 323 321 320 320 323 327 326 324 324 322 319 319
279 273 262 258 257 252 238 226 209 191 183 176 172 174 178 187 194 191 183 172 153 121 36 358 349 343 339 343 350 350 350 352 351 348 348 349 347 344 342 338 335 335 336 335 336 336 334 333 332 329 327 325 323 322 319 318 316 314 315 319 319 319 321 319 317 320 324 326 327 325 322 321 321 321
277 270 259 252 246 239 231 226 214 197 187 181 181 184 190 199 204 200 188 173 161 118 349 341 342 340 337 339 346 348 347 348 348 347 347 348 346 343 342 338 334 334 335 336 336 334 331 331 331 329 326 325 322 320 318 317 315 314 315 316 314 314 316 314 313 318 322 324 325 323 320 319 320 320
274 267 255 244 236 230 229 228 220 208 200 196 197 202 206 207 209 208 197 191 215 310 333 335 338 336 333 337 342 344 343 344 346 346 346 347 345 342 341 340 336 332 333 337 338 334 330 329 329 329 327 325 324 323 322 319 316 315 315 315 314 311 309 309 312 315 318 320 321 321 320 319 319 319
270 264 250 237 231 230 231 230 226 222 219 216 214 216 216 213 212 216 217 237 267 297 323 331 332 331 332 337 339 339 340 343 345 344 343 344 343 341 341 342 338 332 331 336 339 335 329 327 328 328 326 324 325 326 325 321 319 317 315 316 314 311 309 310 312 314 315 317 318 319 320 319 318 318
266 259 244 232 232 236 236 232 230 230 232 231 225 223 226 224 220 218 227 255 277 293 311 326 328 326 331 336 337 336 338 341 343 341 340 341 341 341 341 341 340 334 332 334 336 336 330 326 327 328 325 323 325 326 325 323 320 318 316 315 313 311 312 312 311 312 313 314 315 316 317 317 316 315
261 252 240 233 237 244 243 236 234 237 239 237 232 231 234 234 231 231 248 271 280 286 302 318 323 324 328 332 334 333 334 338 340 339 339 339 339 340 341 340 339 336 333 332 334 338 335 328 328 330 326 323 325 326 324 323 322 320 318 316 312 310 311 311 310 310 311 312 314 315 315 315 314 313
261 250 241 239 243 250 250 244 242 243 243 241 238 237 238 242 248 258 277 285 283 286 302 315 320 324 326 328 330 330 331 334 336 337 338 337 337 339 340 339 338 335 332 330 332 339 339 331 331 333 329 327 329 328 326 324 323 321 319 318 314 310 309 309 309 309 310 311 314 315 314 313 312 311
265 255 246 245 248 252 252 250 248 247 246 244 242 242 244 251 262 275 287 290 288 291 302 309 315 322 325 326 327 327 329 332 333 335 337 335 335 337 338 337 336 334 331 329 331 339 341 336 336 339 335 333 335 332 327 326 325 322 320 319 316 312 309 308 308 309 310 311 312 313 313 312 310 309
268 262 253 248 249 252 251 251 251 251 250 249 247 249 253 257 264 277 286 289 292 298 304 308 315 322 324 325 325 326 328 330 331 334 334 332 332 335 335 335 335 333 331 328 330 338 341 337 339 341 338 337 338 332 325 322 322 321 319 317 316 312 309 308 308 308 309 310 311 311 311 310 309 307
271 266 256 250 250 252 251 252 255 256 256 255 253 254 259 261 266 274 279 283 290 298 304 310 317 322 323 323 324 325 326 327 329 332 332 330 331 333 333 332 333 333 330 326 329 335 338 337 337 338 339 341 339 334 328 322 318 317 316 314 314 312 310 309 308 308 308 309 308 308 308 308 306 306
270 265 259 253 253 253 252 255 259 259 258 257 256 257 261 264 269 275 277 283 290 296 300 308 314 317 319 319 320 321 324 325 327 328 328 328 330 332 330 328 330 333 330 326 328 333 336 336 336 336 339 343 341 336 333 329 322 318 315 313 311 310 309 308 308 307 306 306 306 306 306 306 305 305
268 267 264 260 257 254 253 255 258 260 261 260 258 260 263 268 273 277 280 286 292 295 299 305 310 313 314 314 315 317 320 322 322 323 324 327 328 328 327 325 327 331 329 326 327 331 334 336 337 336 338 342 342 338 335 332 328 324 322 321 315 310 309 308 307 306 305 305 305 305 306 306 306 305
269 268 267 266 262 256 254 255 258 261 263 263 262 264 269 273 275 279 283 287 290 292 297 302 307 310 311 311 313 315 317 318 319 320 322 325 325 324 323 323 325 328 329 327 328 331 334 336 338 337 337 338 340 340 338 334 331 328 326 326 321 314 310 309 308 307 307 307 307 307 307 307 307 305
269 268 268 267 264 260 259 259 259 261 264 265 267 269 272 274 277 281 285 286 287 290 295 300 304 306 308 310 312 314 315 317 318 320 322 323 323 322 322 322 325 328 329 329 329 330 333 335 336 336 336 336 337 338 338 335 333 331 328 326 324 320 316 312 309 308 308 308 309 308 308 308 308 307
268 267 265 264 263 263 263 261 259 260 262 266 268 270 271 274 278 281 282 282 284 288 294 299 301 303 306 308 310 311 313 315 317 319 320 321 321 321 320 321 324 327 327 327 327 329 331 333 334 334 334 335 334 335 336 335 334 333 331 328 326 324 320 316 312 309 308 307 308 308 306 307 308 307
264 263 261 260 261 261 262 260 259 259 261 264 266 268 270 273 276 278 279 280 284 289 294 297 299 301 304 306 307 309 311 313 314 316 317 318 319 318 317 319 322 325 325 326 326 328 329 331 332 331 331 332 332 333 334 334 334 334 333 331 328 324 321 318 314 310 307 305 305 305 304 304 305 304
258 259 259 258 258 258 258 259 259 259 260 262 264 266 269 271 272 275 278 282 287 291 293 295 297 300 302 304 306 307 309 311 312 313 315 316 316 315 315 316 320 322 323 323 324 325 327 328 329 329 329 330 331 331 331 332 333 333 333 332 330 325 321 316 312 309 307 304 301 300 300 301 302 302
253 256 257 255 255 255 256 257 258 259 260 261 263 265 268 270 272 277 281 286 290 292 292 294 297 300 302 303 305 306 307 309 311 312 313 313 313 313 313 315 318 320 321 322 323 324 325 327 328 328 328 329 330 330 330 331 332 331 331 331 329 326 321 315 311 308 305 302 300 297 296 298 300 301
248 250 251 252 253 254 255 255 256 257 259 260 262 264 267 271 277 282 286 288 291 292 293 295 298 300 301 302 304 305 306 308 310 311 312 312 311 312 313 314 316 319 320 321 322 323 324 325 326 326 327 328 328 328 328 329 330 330 330 329 328 325 321 315 310 307 304 303 301 297 295 296 298 301
244 246 248 251 253 253 254 255 256 257 258 261 263 266 271 276 282 286 288 290 291 292 294 296 297 298 300 302 303 304 305 307 309 309 310 310 309 310 311 314 316 318 319 319 320 321 322 323 324 324 325 326 327 327 327 328 328 328 328 328 326 323 320 315 311 308 305 303 302 298 294 295 298 301
243 246 249 251 253 254 255 256 256 257 260 263 267 272 277 281 284 287 289 290 291 292 293 295 296 297 299 301 302 304 305 306 307 307 307 308 308 309 311 314 316 318 318 318 319 320 321 322 322 322 323 324 325 325 326 326 327 327 327 326 324 322 319 316 313 310 307 305 302 298 294 295 299 303
252 253 254 254 255 256 257 258 259 261 265 269 274 277 280 283 285 287 288 290 291 292 292 294 295 297 299 301 302 303 304 305 306 306 306 306 307 309 312 314 316 317 317 318 318 319 320 321 321 321 322 323 324 324 325 325 326 326 326 325 324 321 319 316 314 311 309 306 302 298 295 296 301 306
261 260 260 260 260 261 262 263 264 266 269 273 276 279 281 284 285 287 288 289 289 290 291 292 294 296 298 300 301 302 303 304 304 304 304 305 307 310 312 314 315 315 316 316 317 318 319 320 320 320 321 321 322 323 324 324 324 325 325 323 322 321 318 315 313 311 309 307 303 299 296 298 303 309
268 266 265 264 264 265 267 268 269 271 273 276 278 280 282 283 284 285 286 286 288 289 291 292 294 296 298 299 300 301 302 302 303 303 303 305 307 310 312 313 314 314 315 315 316 317 318 318 319 319 320 320 321 321 322 323 323 324 323 322 320 319 317 314 313 311 309 308 305 300 297 299 304 309
271 271 269 268 268 268 268 268 269 270 271 272 274 278 280 280 281 282 284 286 287 289 291 292 294 296 297 298 299 300 300 301 301 302 303 305 307 310 311 312 313 313 314 315 315 316 317 317 318 318 318 320 320 321 322 322 322 322 322 321 320 318 315 313 311 310 309 308 306 302 298 298 303 308
271 271 270 270 269 269 268 269 271 272 271 271 273 275 277 279 281 283 285 287 288 289 291 292 293 294 295 297 298 299 299 299 300 301 303 305 308 310 311 311 312 313 314 314 315 316 316 316 317 317 318 319 321 321 322 322 321 321 322 321 320 318 316 313 310 308 307 306 305 303 299 298 302 307
272 272 272 270 268 267 266 268 272 276 278 278 277 277 279 281 283 285 287 288 288 289 290 291 292 294 295 296 297 297 298 299 300 302 304 306 308 309 310 311 311 312 313 314 314 315 316 316 316 317 318 319 321 321 321 321 321 321 321 321 320 319 316 314 310 308 305 304 302 301 299 299 301 305
273 275 276 274 271 268 265 263 264 270 275 278 279 280 281 283 284 286 286 287 287 288 289 290 292 293 294 295 296 297 298 299 301 303 305 307 308 309 309 310 311 312 313 313 314 315 315 315 316 317 318 320 320 320 320 320 319 320 320 320 319 319 317 315 312 309 306 303 301 298 298 298 300 303
272 274 276 277 277 276 273 269 268 272 277 279 279 280 281 283 284 285 285 286 287 288 289 291 292 293 294 295 296 297 298 300 302 304 305 306 307 308 309 310 311 311 312 313 313 314 314 315 316 317 318 319 320 320 319 319 319 319 320 319 319 319 318 316 314 310 307 304 301 297 296 297 299 302
271 272 274 275 276 278 278 277 276 277 278 278 277 278 280 281 282 283 285 286 287 289 290 291 292 293 294 295 296 297 299 301 302 304 305 306 307 308 308 309 310 311 312 312 312 313 314 315 316 317 318 319 319 319 319 319 319 319 319 318 318 318 317 315 313 311 308 305 301 298 296 296 299 302
273 273 273 272 272 273 274 275 276 276 276 277 278 279 280 280 281 283 284 286 288 289 290 291 292 293 294 295 296 298 300 301 303 304 305 305 306 307 308 309 309 310 311 311 312 312 313 314 316 317 317 318 318 318 318 318 318 317 317 316 316 315 314 313 311 310 308 305 303 300 299 298 300 302
273 273 273 273 273 274 275 276 276 276 276 277 277 278 279 280 281 282 284 286 288 289 290 291 292 293 294 296 297 299 300 301 302 303 304 305 305 306 307 308 309 309 310 310 311 312 313 314 316 316 316 316 316 316 316 316 315 315 314 313 312 311 310 309 308 306 304 303 302 302 302 301 302 302
272 272 273 275 276 277 278 278 277 276 275 275 276 277 279 280 282 282 283 285 287 289 290 291 293 294 295 296 297 299 300 300 301 302 303 304 305 306 307 308 308 309 309 309 310 311 312 314 315 315 314 315 315 314 314 314 313 312 312 311 309 308 307 306 304 302 298 295 294 296 298 299 300 300
273 274 275 275 276 277 277 276 275 275 275 275 276 277 278 280 281 282 284 286 288 289 290 292 292 293 295 296 297 298 299 300 300 301 302 303 304 305 306 307 308 308 308 308 309 310 312 313 313 313 313 313 313 312 312 311 311 310 310 309 308 307 306 305 303 300 297 292 289 290 292 294 295 295